FW9375 Weather Reports


time (UTC)temp
C
wind
direction
speed
KPH
gust
KPH
rain 1hr
cm
rain 24hr
cm
rain mn
cm
humidity
%
barometer
mb
20260507070032 15 0.0 0.0 0.00 0.00 0.00 10 1016.0
20260507064531 15 0.0 0.0 0.00 0.00 0.00 10 1015.9
20260507063031 15 0.0 0.0 0.00 0.00 0.00 10 1015.7
20260507061531 15 0.0 0.0 0.00 0.00 0.00 10 1015.5
20260507060032 15 0.0 0.0 0.00 0.00 0.00 10 1015.4
20260507054532 15 0.0 0.0 0.00 0.00 0.00 10 1015.2
20260507051531 15 0.0 0.0 0.00 0.00 0.00 10 1015.1
20260507044532 15 0.0 0.0 0.00 0.00 0.00 10 1014.7
20260507043032 15 0.0 0.0 0.00 0.00 0.00 10 1014.4
20260507041532 15 0.0 0.0 0.00 0.00 0.00 10 1014.2
20260507040031 15 0.0 0.0 0.00 0.00 0.00 10 1014.0
20260507034531 15 0.0 0.0 0.00 0.00 0.00 10 1013.8
20260507033032 15 0.0 0.0 0.00 0.00 0.00 10 1013.8
20260507031531 15 0.0 0.0 0.00 0.00 0.00 10 1013.8
20260507030032 15 0.0 0.0 0.00 0.00 0.00 10 1013.8
20260507024532 15 0.0 0.0 0.00 0.00 0.00 10 1013.7
20260507021531 15 0.0 0.0 0.00 0.00 0.00 10 1013.6
20260507020032 15 0.0 0.0 0.00 0.00 0.00 10 1013.6
20260507014532 15 0.0 0.0 0.00 0.00 0.00 10 1013.4
20260507013032 15 0.0 0.0 0.00 0.00 0.00 10 1013.4
20260507011532 15 0.0 0.0 0.00 0.00 0.00 10 1013.3
20260507010031 15 0.0 0.0 0.00 0.00 0.00 10 1013.2
20260507004532 16 0.0 0.0 0.00 0.00 0.00 10 1013.2
20260507003031 16 0.0 0.0 0.00 0.00 0.00 10 1013.3
20260507001531 16 0.0 0.0 0.00 0.00 0.00 10 1013.2
20260507000031 16 0.0 0.0 0.00 0.00 0.00 10 1013.2
20260506234532 16 0.0 0.0 0.00 0.00 0.00 10 1013.2
20260506233031 17 0.0 0.0 0.00 0.00 0.00 10 1013.1
20260506231531 17 0.0 0.0 0.00 0.00 0.00 10 1013.3
20260506230032 17 0.0 0.0 0.00 0.00 0.00 10 1013.2
20260506223032 17 0.0 0.0 0.00 0.00 0.00 10 1013.2
20260506220032 17 0.0 0.0 0.00 0.00 0.00 10 1013.3
20260506214532 17 0.0 0.0 0.00 0.00 0.00 10 1013.4
20260506213031 17 0.0 0.0 0.00 0.00 0.00 10 1013.6
20260506210032 18 0.0 0.0 0.00 0.00 0.00 10 1013.3
20260506204532 18 0.0 0.0 0.00 0.00 0.00 10 1013.4
20260506203032 18 0.0 0.0 0.00 0.00 0.00 10 1013.3
20260506201531 18 0.0 0.0 0.00 0.00 0.00 10 1013.4
20260506200032 18 0.0 0.0 0.00 0.00 0.00 10 1013.5
20260506194532 18 0.0 0.0 0.00 0.00 0.00 10 1013.2
20260506193031 19 0.0 0.0 0.00 0.00 0.00 10 1013.1
20260506190032 20 0.0 0.0 0.00 0.00 0.00 10 1013.0
20260506184532 20 0.0 0.0 0.00 0.00 0.00 10 1013.2
20260506181531 20 0.0 0.0 0.00 0.00 0.00 10 1011.8
20260506180032 21 0.0 0.0 0.00 0.00 0.00 10 1011.6
20260506174531 21 0.0 0.0 0.00 0.00 0.00 10 1011.1
20260506173031 21 0.0 0.0 0.00 0.00 0.00 10 1011.0
20260506171532 21 0.0 0.0 0.00 0.00 0.00 10 1010.9
20260506170032 21 0.0 0.0 0.00 0.00 0.00 10 1010.9
20260506164532 22 0.0 0.0 0.00 0.00 0.00 10 1010.8
20260506163032 22 0.0 0.0 0.00 0.00 0.00 10 1010.7
20260506161532 22 0.0 0.0 0.00 0.00 0.00 10 1010.7
20260506154531 25 0.0 0.0 0.00 0.00 0.00 57 1010.4
20260506153032 26 0.0 0.0 0.00 0.00 0.00 54 1010.2
20260506151532 26 0.0 0.0 0.00 0.00 0.00 53 1010.3
20260506150032 27 0.0 0.0 0.00 0.00 0.00 51 1010.3
20260506143032 27 0.0 0.0 0.00 0.00 0.00 46 1010.5
20260506140031 27 0.0 0.0 0.00 0.00 0.00 47 1010.7
20260506134532 27 0.0 0.0 0.00 0.00 0.00 47 1010.8
20260506130032 28 0.0 0.0 0.00 0.00 0.00 42 1011.2
20260506124532 28 0.0 0.0 0.00 0.00 0.00 43 1011.3
20260506123032 28 0.0 0.0 0.00 0.00 0.00 43 1011.5
20260506120032 28 0.0 0.0 0.00 0.00 0.00 42 1011.8
20260506114532 28 0.0 0.0 0.00 0.00 0.00 42 1012.0
20260506113038 28 0.0 0.0 0.00 0.00 0.00 44 1012.1
20260506111532 27 0.0 0.0 0.00 0.00 0.00 43 1012.3
20260506110032 27 0.0 0.0 0.00 0.00 0.00 43 1012.4
20260506104532 27 0.0 0.0 0.00 0.00 0.00 45 1012.5
20260506103032 26 0.0 0.0 0.00 0.00 0.00 47 1012.6
20260506101536 26 0.0 0.0 0.00 0.00 0.00 48 1012.8
20260506094535 25 0.0 0.0 0.00 0.00 0.00 52 1013.1
20260506093035 25 0.0 0.0 0.00 0.00 0.00 53 1013.1
20260506090036 24 0.0 0.0 0.00 0.00 0.00 57 1013.4
20260506084532 23 0.0 0.0 0.00 0.00 0.00 57 1013.5
20260506081532 22 0.0 0.0 0.00 0.00 0.00 67 1013.6
20260506073036 20 0.0 0.0 0.00 0.00 0.00 78 1013.6
20260506071535 20 0.0 0.0 0.00 0.00 0.00 75 1013.6